| time (UTC) | temp C | wind direction | speed KPH | gust KPH | rain 1hr cm | rain 24hr cm | rain mn cm | humidity % | barometer mb |
| 20260506173237 | 16 | 160 | 6.4 | 8.0 | 0.00 | 0.00 | 0.00 | 80 | |
| 20260506172021 | 17 | 142 | 8.0 | 12.9 | 0.00 | 0.00 | 0.00 | 78 | |
| 20260506170815 | 17 | 154 | 9.7 | 12.9 | 0.00 | 0.00 | 0.00 | 78 | |
| 20260506165641 | 17 | 126 | 11.3 | 16.1 | 0.00 | 0.00 | 0.00 | 78 | |
| 20260506164424 | 17 | 136 | 12.9 | 17.7 | 0.00 | 0.00 | 0.00 | 77 | |
| 20260506163219 | 18 | 156 | 9.7 | 17.7 | 0.00 | 0.00 | 0.00 | 77 | |
| 20260506162020 | 19 | 159 | 9.7 | 14.5 | 0.00 | 0.00 | 0.00 | 76 | |
| 20260506160829 | 19 | 146 | 12.9 | 20.9 | 0.00 | 0.00 | 0.00 | 76 | |
| 20260506155623 | 19 | 159 | 11.3 | 17.7 | 0.00 | 0.00 | 0.00 | 76 | |
| 20260506154415 | 19 | 140 | 14.5 | 20.9 | 0.00 | 0.00 | 0.00 | 76 | |
| 20260506153221 | 20 | 162 | 8.0 | 9.7 | 0.00 | 0.00 | 0.00 | 76 | |
| 20260506152018 | 20 | 174 | 4.8 | 8.0 | 0.00 | 0.00 | 0.00 | 76 | |
| 20260506150839 | 20 | 171 | 8.0 | 16.1 | 0.00 | 0.00 | 0.00 | 76 | |
| 20260506145625 | 20 | 145 | 9.7 | 12.9 | 0.00 | 0.00 | 0.00 | 76 | |
| 20260506144429 | 20 | 160 | 9.7 | 16.1 | 0.00 | 0.00 | 0.00 | 77 | |
| 20260506143223 | 19 | 173 | 8.0 | 12.9 | 0.00 | 0.00 | 0.00 | 78 | |
| 20260506142035 | 19 | 169 | 9.7 | 14.5 | 0.00 | 0.00 | 0.00 | 78 | |
| 20260506140829 | 19 | 132 | 8.0 | 12.9 | 0.00 | 0.00 | 0.00 | 80 | |
| 20260506135627 | 18 | 193 | 8.0 | 14.5 | 0.00 | 0.00 | 0.00 | 81 | |
| 20260506134419 | 18 | 180 | 8.0 | 11.3 | 0.00 | 0.00 | 0.00 | 81 | |
| 20260506133229 | 18 | 168 | 6.4 | 16.1 | 0.00 | 0.00 | 0.00 | 81 | |
| 20260506132017 | 18 | 160 | 9.7 | 17.7 | 0.00 | 0.00 | 0.00 | 81 | |
| 20260506130823 | 18 | 193 | 8.0 | 11.3 | 0.00 | 0.00 | 0.00 | 82 | |
| 20260506125615 | 18 | 146 | 8.0 | 11.3 | 0.00 | 0.00 | 0.00 | 84 | |
| 20260506124429 | 18 | 194 | 8.0 | 9.7 | 0.00 | 0.00 | 0.00 | 85 | |
| 20260506123229 | 17 | 206 | 8.0 | 14.5 | 0.00 | 0.00 | 0.00 | 86 | |
| 20260506122015 | 17 | 188 | 6.4 | 11.3 | 0.00 | 0.00 | 0.00 | 86 | |
| 20260506120829 | 17 | 189 | 6.4 | 9.7 | 0.00 | 0.00 | 0.00 | 86 | |
| 20260506115617 | 17 | 195 | 6.4 | 12.9 | 0.00 | 0.00 | 0.00 | 87 | |
| 20260506114423 | 16 | 214 | 6.4 | 9.7 | 0.00 | 0.00 | 0.00 | 87 | |
| 20260506113249 | 16 | 196 | 4.8 | 6.4 | 0.00 | 0.00 | 0.00 | 87 | |
| 20260506112021 | 16 | 169 | 6.4 | 8.0 | 0.00 | 0.00 | 0.00 | 87 | |
| 20260506110827 | 16 | 135 | 8.0 | 14.5 | 0.00 | 0.00 | 0.00 | 87 | |
| 20260506105619 | 16 | 145 | 9.7 | 16.1 | 0.00 | 0.00 | 0.00 | 87 | |
| 20260506104425 | 16 | 161 | 9.7 | 20.9 | 0.00 | 0.00 | 0.00 | 88 | |
| 20260506103217 | 16 | 175 | 9.7 | 16.1 | 0.00 | 0.00 | 0.00 | 88 | |
| 20260506102023 | 16 | 155 | 9.7 | 12.9 | 0.00 | 0.00 | 0.00 | 89 | |
| 20260506100815 | 15 | 166 | 9.7 | 14.5 | 0.00 | 0.00 | 0.00 | 89 | |
| 20260506095618 | 15 | 132 | 6.4 | 12.9 | 0.00 | 0.00 | 0.00 | 89 | |
| 20260506094448 | 15 | 139 | 8.0 | 17.7 | 0.00 | 0.00 | 0.00 | 90 | |
| 20260506093227 | 15 | 157 | 8.0 | 16.1 | 0.00 | 0.00 | 0.00 | 90 | |
| 20260506092025 | 15 | 139 | 8.0 | 12.9 | 0.00 | 0.00 | 0.00 | 90 | |
| 20260506090817 | 15 | 153 | 9.7 | 16.1 | 0.00 | 0.00 | 0.00 | 91 | |
| 20260506085623 | 15 | 131 | 11.3 | 24.1 | 0.00 | 0.00 | 0.00 | 91 | |
| 20260506084429 | 15 | 182 | 8.0 | 11.3 | 0.00 | 0.00 | 0.00 | 90 | |
| 20260506083221 | 15 | 193 | 11.3 | 14.5 | 0.00 | 0.00 | 0.00 | 90 | |
| 20260506082028 | 15 | 146 | 9.7 | 17.7 | 0.00 | 0.00 | 0.00 | 90 | |
| 20260506080828 | 15 | 143 | 11.3 | 17.7 | 0.00 | 0.00 | 0.00 | 90 | |
| 20260506073239 | 14 | 139 | 4.8 | 9.7 | 0.00 | 0.00 | 0.00 | 89 | |
| 20260506072015 | 14 | 140 | 4.8 | 14.5 | 0.00 | 0.00 | 0.00 | 88 | |
| 20260506070821 | 14 | 163 | 4.8 | 9.7 | 0.00 | 0.00 | 0.00 | 88 | |
| 20260506062028 | 15 | 138 | 4.8 | 11.3 | 0.00 | 0.00 | 0.00 | 83 | |
| 20260506060824 | 16 | 177 | 4.8 | 9.7 | 0.00 | 0.00 | 0.00 | 82 | |
| 20260506050840 | 16 | 169 | 6.4 | 11.3 | 0.00 | 0.00 | 0.00 | 82 | |
| 20260506044423 | 15 | 152 | 4.8 | 9.7 | 0.00 | 0.00 | 0.00 | 83 | |
| 20260506043215 | 15 | 140 | 6.4 | 12.9 | 0.00 | 0.00 | 0.00 | 83 | |
| 20260506042047 | 15 | 147 | 8.0 | 17.7 | 0.00 | 0.00 | 0.00 | 83 | |
| 20260506040816 | 15 | 142 | 6.4 | 12.9 | 0.00 | 0.00 | 0.00 | 83 | |
| 20260506035620 | 15 | 181 | 4.8 | 6.4 | 0.00 | 0.00 | 0.00 | 83 | |
| 20260506034427 | 15 | 173 | 4.8 | 8.0 | 0.00 | 0.00 | 0.00 | 83 | |
| 20260506033217 | 15 | 159 | 6.4 | 16.1 | 0.00 | 0.00 | 0.00 | 83 | |
| 20260506032108 | 15 | 143 | 6.4 | 9.7 | 0.00 | 0.00 | 0.00 | 84 | |
| 20260506030815 | 15 | 135 | 8.0 | 12.9 | 0.00 | 0.00 | 0.00 | 84 | |
| 20260506025641 | 15 | 166 | 8.0 | 12.9 | 0.00 | 0.00 | 0.00 | 84 | |
| 20260506024427 | 15 | 165 | 8.0 | 9.7 | 0.00 | 0.00 | 0.00 | 85 | |
| 20260506023247 | 15 | 154 | 6.4 | 9.7 | 0.00 | 0.00 | 0.00 | 85 | |
| 20260506022027 | 15 | 140 | 4.8 | 6.4 | 0.00 | 0.00 | 0.00 | 85 | |
| 20260506020827 | 15 | 168 | 6.4 | 9.7 | 0.00 | 0.00 | 0.00 | 85 | |
| 20260506015623 | 15 | 125 | 6.4 | 16.1 | 0.00 | 0.00 | 0.00 | 85 | |
| 20260506014417 | 15 | 169 | 6.4 | 9.7 | 0.00 | 0.00 | 0.00 | 85 | |
| 20260506013221 | 15 | 157 | 6.4 | 11.3 | 0.00 | 0.00 | 0.00 | 85 | |
| 20260506012027 | 15 | 176 | 6.4 | 12.9 | 0.00 | 0.00 | 0.00 | 85 | |
| 20260506010819 | 15 | 155 | 6.4 | 11.3 | 0.00 | 0.00 | 0.00 | 85 | |
| 20260506005647 | 15 | 175 | 6.4 | 14.5 | 0.00 | 0.00 | 0.00 | 84 | |
| 20260506004427 | 15 | 172 | 8.0 | 12.9 | 0.00 | 0.00 | 0.00 | 84 | |
| 20260506003247 | 15 | 160 | 8.0 | 12.9 | 0.00 | 0.00 | 0.00 | 84 | |
| 20260506002055 | 15 | 149 | 6.4 | 17.7 | 0.00 | 0.00 | 0.00 | 84 | |
| 20260506000847 | 15 | 177 | 8.0 | 11.3 | 0.00 | 0.00 | 0.00 | 84 | |
| 20260505235627 | 15 | 155 | 9.7 | 19.3 | 0.00 | 0.00 | 0.00 | 83 | |
| 20260505234426 | 15 | 192 | 8.0 | 9.7 | 0.00 | 0.00 | 0.00 | 83 | |
| 20260505233225 | 15 | 175 | 8.0 | 12.9 | 0.00 | 0.00 | 0.00 | 83 | |
| 20260505232017 | 15 | 166 | 8.0 | 11.3 | 0.00 | 0.00 | 0.00 | 83 | |
| 20260505230826 | 15 | 180 | 8.0 | 11.3 | 0.00 | 0.00 | 0.00 | 83 | |
| 20260505225615 | 15 | 190 | 6.4 | 11.3 | 0.00 | 0.00 | 0.00 | 83 | |
| 20260505224427 | 15 | 191 | 8.0 | 19.3 | 0.00 | 0.00 | 0.00 | 83 | |
| 20260505223226 | 14 | 150 | 8.0 | 14.5 | 0.00 | 0.00 | 0.00 | 83 | |
| 20260505222026 | 14 | 154 | 8.0 | 12.9 | 0.00 | 0.00 | 0.00 | 83 | |
| 20260505220826 | 14 | 188 | 9.7 | 11.3 | 0.00 | 0.00 | 0.00 | 83 | |
| 20260505215617 | 14 | 184 | 8.0 | 12.9 | 0.00 | 0.00 | 0.00 | 82 | |
| 20260505214423 | 14 | 138 | 12.9 | 17.7 | 0.00 | 0.00 | 0.00 | 82 | |
| 20260505213246 | 14 | 176 | 6.4 | 9.7 | 0.00 | 0.00 | 0.00 | 82 | |
| 20260505212021 | 14 | 163 | 8.0 | 12.9 | 0.00 | 0.00 | 0.00 | 82 | |
| 20260505210827 | 14 | 154 | 9.7 | 19.3 | 0.00 | 0.00 | 0.00 | 82 | |
| 20260505205619 | 14 | 160 | 8.0 | 12.9 | 0.00 | 0.00 | 0.00 | 82 | |
| 20260505204446 | 14 | 161 | 6.4 | 9.7 | 0.00 | 0.00 | 0.00 | 81 | |
| 20260505203226 | 14 | 190 | 8.0 | 9.7 | 0.00 | 0.00 | 0.00 | 81 | |
| 20260505202026 | 14 | 187 | 8.0 | 9.7 | 0.00 | 0.00 | 0.00 | 81 | |
| 20260505200815 | 14 | 197 | 8.0 | 16.1 | 0.00 | 0.00 | 0.00 | 81 | |
| 20260505195616 | 14 | 179 | 6.4 | 16.1 | 0.00 | 0.00 | 0.00 | 81 | |
| 20260505194427 | 14 | 180 | 9.7 | 16.1 | 0.00 | 0.00 | 0.00 | 81 | |
| 20260505193226 | 14 | 191 | 9.7 | 14.5 | 0.00 | 0.00 | 0.00 | 81 | |
| 20260505192026 | 14 | 205 | 8.0 | 12.9 | 0.00 | 0.00 | 0.00 | 81 | |
| 20260505190817 | 14 | 207 | 9.7 | 16.1 | 0.00 | 0.00 | 0.00 | 81 | |
| 20260505185623 | 14 | 177 | 9.7 | 16.1 | 0.00 | 0.00 | 0.00 | 81 | |
| 20260505184415 | 15 | 178 | 8.0 | 12.9 | 0.00 | 0.00 | 0.00 | 82 | |
| 20260505183225 | 14 | 197 | 8.0 | 14.5 | 0.00 | 0.00 | 0.00 | 81 | |
| 20260505182026 | 15 | 180 | 4.8 | 9.7 | 0.00 | 0.00 | 0.00 | 81 | |
| 20260505180819 | 14 | 177 | 4.8 | 19.3 | 0.00 | 0.00 | 0.00 | 81 | |
| 20260505175626 | 15 | 174 | 3.2 | 6.4 | 0.00 | 0.00 | 0.00 | 82 | |
| 20260505174417 | 15 | 164 | 3.2 | 8.0 | 0.00 | 0.00 | 0.00 | 82 |